Login

Calgary

Pos Pair Lane Name Born Nation Time
1 4 - Ivanie Blondin 1990 Canada 2:54.49
1 4 - Valerie Maltais 1990 Canada 2:54.49
1 4 - Isabelle Weidemann 1995 Canada 2:54.49
2 5 - Ayano Sato 1996 Japan 2:57.67
2 5 - Momoka Horikawa 2003 Japan 2:57.67
2 5 - Sumire Kikuchi 1996 Japan 2:57.67
3 3 - Giorgia Birkeland 2002 USA 2:57.95
3 3 - Brittany Bowe 1988 USA 2:57.95
3 3 - Mia Kilburg-Manganello 1989 USA 2:57.95
4 4 - Reina Anema 1993 Netherlands 3:00.50
4 4 - Marijke Groenewoud 1999 Netherlands 3:00.50
4 4 - Irene Schouten 1992 Netherlands 3:00.50
5 5 - Olga Kaczmarek 1999 Poland 3:02.57
5 5 - Karolina Bosiek 2000 Poland 3:02.57
5 5 - Magdalena Czyszczoń 1995 Poland 3:02.57
6 1 - Sofie Karoline Haugen 1995 Norway 3:02.58
6 1 - Aurora Løvås 2005 Norway 3:02.58
6 1 - Ragne Wiklund 2000 Norway 3:02.58
7 2 - Lea-Sophie Scholz 1999 Germany 3:04.22
7 2 - Josie Hofmann 1996 Germany 3:04.22
7 2 - Michelle Uhrig 1996 Germany 3:04.22
8 1 - Kaitlyn Anne McGregor 1994 Switzerland 3:05.92
8 1 - Ramona Härdi 1997 Switzerland 3:05.92
8 1 - Nadja Wenger 1991 Switzerland 3:05.92
9 2 - Hyun-Sun Hwang 1993 South Korea 3:12.20
9 2 - Ji-Woo Park 1998 South Korea 3:12.20
9 2 - Chae-Won Park 2002 South Korea 3:12.20
10 3 - Qishi Li 1993 China 3:49.89
10 3 - Binyu Yang 2002 China 3:49.89
10 3 - Mei Han 1998 China 3:49.89

Info

What World Cup A-group
Discipline Team Pursuit
Host Calgary
Nation Canada
Date Saturday 10.Dec 2022
Calendar 2022/2023
Air Temp 16.0 C
Ice Temp -8.0 C
Humidity 29.0 %